St Cloud Regional Airport
KSTC : now visible

Airfield :











YOU CAN JOIN US ON...

 
LOGIN :

Register | Disclaimer

   EN    FR    IT 

 









Legend :    VFR   Marginal VFR   IFR   Intensive IFR   Very Intensive IFR
Visi :
Ceiling :
>= 8 km
>= 3000ft
5 to 8 km
1000 to 3000 ft
1500m to 5 km
500 to 1000 ft
800 to 1500m
200 to 500 ft
< 800m
< 200 ft
Symbols :   Thunderstorms  Fog  Heavy snow  Heavy precipitations  Wind > 20 kt






- Airport Elevation : 1031 ft
- IATA code : STC


KSTC - St Cloud Regional

CURRENT METAR :
  • 221053Z AUTO 00000KT 10SM CLR 05/04 A2992 RMK AO2 SLP145 T00500044

EXPIRED METARs :
  • 220953Z AUTO 00000KT 10SM CLR 06/05 A2992 RMK AO2 SLP141 T00610050

TAF KSTC
Valid from the 22 at 12:00 until the 23 at 12:00 UTC


221120Z 2212/2312 VRB03KT P6SM SKC
FM221600 19004KT P6SM FEW150
FM230400 14003KT P6SM SKC
KZMP FIR / North America



MET'MAP, your aeronautical weather chart ! - Copyright ORBIFLY December 2007 - Disclaimer

ORBIFLY MET'MAP TEAM :

Programming & Development : Alexandra Zaïnal
Concept & original design : Baudouin d'Aumeries
Assistance for programming : Marc-Olivier Méhu
Technical & hardware support : Manuel Goepfert

Contact : metmap@orbifly.com




SOURCES & CREDITS :

   NOAA       Earth
Advisory